[[{"header":{"parameterUnit":"m.s-1","parameterCategory":1,"la1":30.2991,"la2":30.254,"lo1":-89.0895,"lo2":-89.0444,"dy":0.0017,"dx":0.0017,"nx":28,"ny":28,"refTime":"2024-07-27T03:00:00:Z","depth":0,"parameterNumber":2,"parameterNumberName":"U-component_of_WINDS"},"data":[0,0,0,0,0,0,0,0,0,0,0,0,0,0,0,0,0,0,0,0,0,0,0,0,0,0,0,0,0,0,0,0,0,0,0,0,0,0,0,0,0,0,0,0,0,0,0,0,0,0,0,0,0,0,0,0,0,0,1.615,1.6153,0,1.6395,1.6398,1.6401,1.6482,1.6481,1.648,1.6479,1.6731,1.6738,1.6746,0,0,0,0,0,0,0,0,0,0,0,0,0,1.5755,1.5761,1.615,1.6153,1.6156,1.6395,1.6398,1.6402,1.6482,1.6481,1.648,1.6479,1.6728,1.6737,1.6746,0,0,0,0,0,0,0,0,0,0,0,0,0,1.5956,1.5764,1.615,1.6225,1.6235,1.6394,1.6398,1.6403,1.6483,1.6481,1.648,1.6478,1.6725,1.6736,1.6748,1.685,0,0,1.6783,1.6788,0,0,0,0,0,0,0,0,1.5944,1.597,1.6211,1.622,1.6231,1.6407,1.6351,1.6553,1.6483,1.6389,1.6479,1.6477,1.6624,1.6644,1.6693,1.6862,1.6872,1.6784,1.6791,1.6796,1.6799,0,0,0,0,0,0,0,1.593,1.596,1.6247,1.6215,1.6227,1.6248,1.6275,1.639,1.6512,1.6397,1.6403,1.6431,1.6629,1.6682,1.67,1.6876,1.6783,1.6794,1.6801,1.6805,1.7143,1.7145,0,0,0,0,0,0,1.5903,1.5948,1.6239,1.6255,1.6081,1.6256,1.6286,1.6352,1.6511,1.6534,1.6432,1.6434,1.6663,1.6686,1.6709,1.684,1.6796,1.6806,1.6813,1.7141,1.7143,1.7145,0,0,0,0,0,0,1.5894,1.5928,1.623,1.6103,1.6143,1.6265,1.6338,1.6358,1.641,1.6538,1.656,1.6463,1.6663,1.6693,1.6815,1.6849,1.6812,1.6822,1.7138,1.7141,1.7144,1.7101,0,0,0,0,0,0,1.5883,1.5925,1.5964,1.6103,1.615,1.633,1.634,1.6363,1.643,1.6434,1.6573,1.6594,1.6664,1.6797,1.6826,1.6864,1.6831,1.7136,1.714,1.7143,1.71,1.7102,1.7104,0,0,0,0,0,1.5868,1.5942,1.5966,1.6,1.6201,1.6332,1.6358,1.6437,1.6432,1.6473,1.6556,1.659,1.6841,1.6809,1.6842,1.6884,1.7134,1.7138,1.7143,1.7099,1.7102,1.7104,0,0,0,0,0,0,1.5803,1.5961,1.5989,1.611,1.6207,1.6345,1.6399,1.6437,1.6537,1.6537,1.663,1.6661,1.6776,1.6843,1.6804,1.6993,1.6989,1.7001,1.6944,1.6948,1.695,1.6931,1.6841,0,0,0,0,0,1.5803,1.5895,1.6029,1.6123,1.617,1.6276,1.6336,1.6388,1.6492,1.6534,1.6625,1.6725,1.6827,1.6892,1.6992,1.7111,1.7142,1.7157,1.7159,1.716,1.7168,1.7237,1.7245,1.7161,1.7161,1.716,0,0,1.5803,1.5901,1.5954,1.6112,1.6193,1.6288,1.631,1.6409,1.648,1.6549,1.6669,1.674,1.6858,1.6979,1.7036,1.7038,1.7199,1.7166,1.7166,1.7174,1.7242,1.725,1.7257,1.7164,1.7163,1.7163,0,0,1.5851,1.5935,1.6022,1.6103,1.6226,1.6297,1.6318,1.6452,1.6501,1.6624,1.6678,1.6765,1.6938,1.702,1.7084,1.7166,1.7202,1.7197,1.7207,1.7273,1.728,1.7286,1.7315,1.7324,1.7205,1.7205,1.7205,0,1.5835,1.5979,1.6062,1.6159,1.6227,1.6295,1.6385,1.646,1.6609,1.6655,1.6656,1.6875,1.6959,1.7101,1.7121,1.7171,1.7198,1.718,1.7272,1.7279,1.7286,1.7315,1.7326,1.7203,1.7204,1.7204,1.7204,0,1.5954,1.6053,1.611,1.6252,1.6328,1.642,1.6518,1.6584,1.6631,1.6702,1.6826,1.6931,1.7054,1.7092,1.7138,1.724,1.7237,1.7254,1.7252,1.7291,1.732,1.7332,1.7201,1.7202,1.7202,1.7203,0,0,1.5965,1.6154,1.6174,1.624,1.6381,1.646,1.6557,1.6677,1.6733,1.6834,1.6918,1.7064,1.708,1.7153,1.721,1.7268,1.7327,1.7278,1.7282,1.7282,1.7446,1.7432,1.7443,1.7352,1.7355,1.7356,1.7436,0,1.6031,1.6205,1.6284,1.6423,1.6516,1.6584,1.6668,1.6764,1.6834,1.6924,1.7001,1.7103,1.7117,1.7162,1.7223,1.7306,1.736,1.7302,1.743,1.7434,1.7397,1.7458,1.7443,1.7513,1.7448,1.745,1.7451,0,1.613,1.6232,1.638,1.6512,1.6554,1.6628,1.6746,1.6831,1.6943,1.699,1.7072,1.7127,1.7232,1.7225,1.7371,1.7329,1.7387,1.7437,1.7442,1.7455,1.7443,1.7472,1.7537,1.7547,1.747,1.7468,1.7467,0,1.6122,1.6297,1.6408,1.6463,1.662,1.6671,1.6739,1.6849,1.6917,1.7021,1.7066,1.7181,1.7243,1.7331,1.7415,1.7402,1.7554,1.7553,1.7596,1.7593,1.7623,1.7619,1.7696,1.7662,1.7662,1.7662,1.7661,0,1.6186,1.6274,1.6407,1.6475,1.6576,1.6667,1.6765,1.6838,1.6936,1.7021,1.7087,1.7165,1.7273,1.7365,1.7432,1.7543,1.7571,1.7612,1.7629,1.7605,1.76,1.7643,1.764,1.7665,1.7664,1.7663,1.7663,0,1.6193,1.6286,1.6412,1.6551,1.6588,1.6656,1.6776,1.6845,1.6919,1.7026,1.7056,1.7172,1.7284,1.7378,1.7525,1.757,1.7685,1.7706,1.7647,1.7656,1.7692,1.7687,1.7799,1.7818,1.7771,1.7771,1.7772,0,1.6226,1.6296,1.6443,1.6504,1.6571,1.6669,1.6739,1.6833,1.6903,1.7037,1.7091,1.7208,1.7306,1.7482,1.758,1.7693,1.7716,1.7747,1.7733,1.7708,1.7716,1.771,1.7717,1.7747,1.7747,1.7747,1.7747,0,1.6276,1.6319,1.6418,1.6533,1.6615,1.671,1.6807,1.6854,1.6965,1.7041,1.7157,1.7233,1.7384,1.7499,1.7624,1.7695,1.774,1.7752,1.7767,1.7743,1.7706,1.7726,1.7649,1.7748,1.7748,1.7748,1.7748,1.7748,1.6298,1.6363,1.6476,1.6584,1.6667,1.6757,1.6829,1.6913,1.7011,1.7141,1.7191,1.7309,1.7421,1.7593,1.7665,1.7759,1.7765,1.7788,1.7793,1.7797,1.7793,1.7693,1.7782,1.7783,1.7783,1.7783,1.7783,0,1.635,1.6427,1.6526,1.6659,1.6745,1.6781,1.6891,1.696,1.7063,1.7164,1.7259,1.7393,1.7506,1.7614,1.7732,1.7787,1.7811,1.7815,1.7811,1.7827,1.7782,1.7756,1.7794,1.7794,1.7794,1.7794,1.7794,1.7794,1.6387,1.6499,1.6556,1.6711,1.6788,1.6904,1.6964,1.7047,1.7128,1.7274,1.7368,1.7438,1.7543,1.767,1.7775,1.7804,1.7845,1.7843,1.7877,1.7832,1.783,1.7828,1.7804,1.7851,1.7851,1.7915,1.7915,1.7916]},{"header":{"parameterUnit":"m.s-1","parameterCategory":1,"la1":30.2991,"la2":30.254,"lo1":-89.0895,"lo2":-89.0444,"dy":0.0017,"dx":0.0017,"nx":28,"ny":28,"refTime":"2024-07-27T03:00:00:Z","depth":0,"parameterNumber":3,"parameterNumberName":"V-component_of_WINDS"},"data":[0,0,0,0,0,0,0,0,0,0,0,0,0,0,0,0,0,0,0,0,0,0,0,0,0,0,0,0,0,0,0,0,0,0,0,0,0,0,0,0,0,0,0,0,0,0,0,0,0,0,0,0,0,0,0,0,0,0,1.7656,1.7655,0,1.7595,1.7594,1.7593,1.7573,1.7573,1.7574,1.7574,1.7507,1.7505,1.7503,0,0,0,0,0,0,0,0,0,0,0,0,0,1.775,1.7748,1.7656,1.7655,1.7654,1.7595,1.7594,1.7593,1.7573,1.7574,1.7574,1.7574,1.7507,1.7505,1.7502,0,0,0,0,0,0,0,0,0,0,0,0,0,1.7701,1.7748,1.7656,1.7637,1.7635,1.7595,1.7594,1.7593,1.7573,1.7574,1.7574,1.7574,1.7508,1.7505,1.7502,1.7475,0,0,1.7493,1.7491,0,0,0,0,0,0,0,0,1.7704,1.7697,1.7641,1.7638,1.7636,1.7592,1.7602,1.7553,1.7573,1.7596,1.7574,1.7575,1.7534,1.7529,1.7517,1.7472,1.7469,1.7492,1.7491,1.7489,1.7488,0,0,0,0,0,0,0,1.7707,1.77,1.7631,1.764,1.7637,1.763,1.7624,1.7593,1.7564,1.7594,1.7593,1.7586,1.7533,1.752,1.7515,1.7468,1.7492,1.749,1.7488,1.7487,1.7395,1.7395,0,0,0,0,0,0,1.7714,1.7703,1.7633,1.763,1.7672,1.7628,1.7621,1.7606,1.7564,1.7558,1.7586,1.7585,1.7525,1.7519,1.7512,1.7477,1.7489,1.7486,1.7485,1.7396,1.7395,1.7395,0,0,0,0,0,0,1.7716,1.7708,1.7636,1.7666,1.7656,1.7626,1.7609,1.7604,1.7591,1.7558,1.7552,1.7578,1.7525,1.7517,1.7484,1.7474,1.7485,1.7482,1.7397,1.7396,1.7395,1.7405,0,0,0,0,0,0,1.7719,1.7709,1.77,1.7666,1.7655,1.761,1.7609,1.7603,1.7586,1.7585,1.7549,1.7543,1.7525,1.7489,1.7481,1.747,1.748,1.7397,1.7396,1.7395,1.7406,1.7405,1.7404,0,0,0,0,0,1.7723,1.7704,1.7699,1.7691,1.7642,1.761,1.7603,1.7584,1.7586,1.7575,1.7553,1.7544,1.7477,1.7486,1.7477,1.7465,1.7398,1.7396,1.7395,1.7406,1.7405,1.7404,0,0,0,0,0,0,1.7736,1.77,1.7694,1.7664,1.764,1.7606,1.7592,1.7584,1.7558,1.7557,1.7533,1.7525,1.7494,1.7476,1.7487,1.7435,1.7437,1.7433,1.7448,1.7447,1.7446,1.745,1.7477,0,0,0,0,0,1.7736,1.7714,1.7683,1.766,1.7648,1.7623,1.7608,1.7595,1.7569,1.7558,1.7534,1.7507,1.748,1.7463,1.7436,1.7403,1.7394,1.739,1.739,1.7389,1.7386,1.7366,1.7364,1.739,1.739,1.739,0,0,1.7735,1.7712,1.77,1.7662,1.7642,1.7618,1.7614,1.7589,1.7571,1.7554,1.7522,1.7503,1.7472,1.7439,1.7423,1.7423,1.7377,1.7388,1.7387,1.7385,1.7365,1.7362,1.736,1.7389,1.739,1.739,0,0,1.7721,1.7702,1.7681,1.7661,1.7631,1.7614,1.7609,1.7576,1.7564,1.7532,1.7518,1.7495,1.7449,1.7427,1.7409,1.7386,1.7376,1.7378,1.7374,1.7354,1.7352,1.735,1.734,1.7337,1.7376,1.7376,1.7376,0,1.7723,1.7688,1.767,1.7646,1.7629,1.7614,1.759,1.7572,1.7534,1.7522,1.7523,1.7464,1.7442,1.7403,1.7398,1.7385,1.7376,1.7382,1.7354,1.7352,1.735,1.734,1.7337,1.7376,1.7376,1.7376,1.7376,0,1.7691,1.7667,1.7653,1.7619,1.76,1.7576,1.7553,1.7536,1.7525,1.7507,1.7473,1.7447,1.7413,1.7403,1.7392,1.7362,1.7363,1.736,1.736,1.7348,1.7338,1.7335,1.7376,1.7376,1.7376,1.7376,0,0,1.7684,1.764,1.7635,1.7618,1.7584,1.7564,1.7539,1.7508,1.7494,1.7468,1.7445,1.7407,1.7403,1.7383,1.7369,1.7352,1.7334,1.735,1.7349,1.7347,1.7298,1.73,1.7296,1.7328,1.7327,1.7326,1.73,0,1.7664,1.7621,1.7603,1.7567,1.7543,1.7528,1.7506,1.7482,1.7465,1.7441,1.7421,1.7393,1.7391,1.7379,1.7362,1.734,1.7323,1.7342,1.7304,1.7303,1.7311,1.7291,1.7293,1.727,1.7296,1.7296,1.7295,0,1.7636,1.7611,1.7573,1.7541,1.753,1.7511,1.748,1.7459,1.743,1.7418,1.7397,1.7383,1.7354,1.7358,1.7317,1.733,1.7313,1.73,1.7298,1.7293,1.7297,1.7284,1.7262,1.7258,1.7289,1.729,1.729,0,1.7632,1.7589,1.7561,1.7547,1.751,1.7496,1.7479,1.7452,1.7434,1.7407,1.7394,1.7364,1.7347,1.7323,1.7301,1.7306,1.7261,1.7263,1.7249,1.7249,1.7239,1.724,1.7213,1.7231,1.7231,1.7231,1.7231,0,1.7611,1.7588,1.7559,1.7541,1.7513,1.7493,1.7466,1.7448,1.7424,1.74,1.7386,1.7364,1.7337,1.7311,1.7294,1.7261,1.7254,1.7242,1.7238,1.7243,1.7244,1.7231,1.7231,1.723,1.723,1.723,1.7231,0,1.7603,1.7582,1.755,1.7517,1.7508,1.7489,1.746,1.7441,1.7423,1.7394,1.7386,1.7358,1.7327,1.7303,1.7262,1.725,1.7215,1.7211,1.7225,1.7223,1.7209,1.721,1.7171,1.7164,1.7189,1.7189,1.7188,0,1.759,1.7572,1.7537,1.7522,1.7506,1.748,1.7462,1.7441,1.7422,1.7388,1.7373,1.7341,1.7315,1.7265,1.724,1.7208,1.7202,1.7191,1.7197,1.7202,1.72,1.7201,1.7198,1.7189,1.7189,1.7189,1.7189,0,1.757,1.756,1.7536,1.7507,1.7486,1.7462,1.7438,1.7426,1.74,1.7379,1.7348,1.7328,1.7286,1.7254,1.722,1.7201,1.719,1.7188,1.7182,1.7186,1.7195,1.7188,1.7221,1.7188,1.7188,1.7188,1.7188,1.7188,1.7557,1.754,1.7513,1.7486,1.7465,1.7443,1.7423,1.7403,1.7377,1.7343,1.7332,1.7299,1.7269,1.7223,1.7203,1.7176,1.7175,1.7168,1.7166,1.7164,1.7164,1.7201,1.717,1.717,1.717,1.717,1.717,0,1.7535,1.7517,1.7492,1.7459,1.7437,1.743,1.7403,1.7384,1.7356,1.733,1.7305,1.7268,1.7236,1.7209,1.7176,1.7159,1.7153,1.7151,1.7151,1.7146,1.7167,1.7174,1.7156,1.7156,1.7156,1.7156,1.7156,1.7156,1.7521,1.749,1.7478,1.7437,1.7418,1.7387,1.7372,1.735,1.7329,1.7289,1.7264,1.7247,1.7219,1.7184,1.7154,1.7146,1.7134,1.7133,1.7124,1.7143,1.7145,1.7147,1.7153,1.7131,1.7131,1.7105,1.7105,1.7105]}]]